Location: Hopville
(44.8032°N, 123.1329°W)
Time: 17:16:45
(UTC+00:00)

FALCON 9 DEB - Pass Details

Date: 24 January 2021
Orbit: 424 x 437 km, 53.0° (Epoch: 01 March)

Event Time Altitude Azimuth Distance (km) Brightness Sun altitude
Exits shadow 14:20:19 24° 313° (NW) 930 4.3 -14.1°
Maximum altitude 14:21:16 28° 343° (NNW) 838 4.3 -13.9°
Drops below altitude 10° 14:24:16 10° 44° (NE) 1,522 6.3 -13.4°
Sets 14:26:35 0° 57° (ENE) 2,392 7.6 -13.0°
